OPTUS C1

Last updated on Thu Jul 03 2025 00:02:44 GMT+0000 (Coordinated Universal Time)

1 27831U 03028B 25183.54468934 -.00000148 00000+0 00000+0 0 9998 2 27831 6.0112 73.6613 0005539 22.5149 176.3999 1.00270443 49552
UTC large
Height (km)
Speed (km/s)
/
Latitude / Longitude
Inclination (degrees)
Orbital Period (minutes)
Azimuth
Elevation
Range (km)
Doppler Factor

Next 0 passes for location: London (51.5072 / 0.1276)

Sorry there are no passes over London.